Time,TemperatureF,DewpointF,PressureIn,WindDirection,WindDirectionDegrees,WindSpeedMPH,WindSpeedGustMPH,Humidity,HourlyPrecipIn,Conditions,Clouds,dailyrainin,SoftwareType,DateUTC
2013-10-30 00:08:00,32.3,23.0,30.29,NW,305,0.0,1.0,69,0.00,,,0.00,weatherlink.com 1.10,2013-10-30 04:08:00,
2013-10-30 00:23:00,32.8,25.0,30.29,WNW,303,0.0,2.0,74,0.00,,,0.00,weatherlink.com 1.10,2013-10-30 04:23:00,
2013-10-30 00:38:00,32.3,24.0,30.28,West,273,1.0,3.0,72,0.00,,,0.00,weatherlink.com 1.10,2013-10-30 04:38:00,
2013-10-30 00:53:00,31.7,25.0,30.28,West,273,0.0,0.0,75,0.00,,,0.00,weatherlink.com 1.10,2013-10-30 04:53:00,
2013-10-30 01:08:00,31.2,25.0,30.28,West,273,0.0,0.0,77,0.00,,,0.00,weatherlink.com 1.10,2013-10-30 05:08:00,
2013-10-30 01:23:00,31.1,24.0,30.27,West,273,1.0,1.0,76,0.00,,,0.00,weatherlink.com 1.10,2013-10-30 05:23:00,
2013-10-30 01:38:00,31.3,25.0,30.27,West,273,0.0,1.0,78,0.00,,,0.00,weatherlink.com 1.10,2013-10-30 05:38:00,
2013-10-30 01:53:00,31.2,25.0,30.27,West,273,0.0,0.0,79,0.00,,,0.00,weatherlink.com 1.10,2013-10-30 05:53:00,
2013-10-30 02:08:00,31.2,25.0,30.27,West,273,0.0,0.0,79,0.00,,,0.00,weatherlink.com 1.10,2013-10-30 06:08:00,
2013-10-30 02:23:00,31.8,25.0,30.27,West,273,0.0,1.0,77,0.00,,,0.00,weatherlink.com 1.10,2013-10-30 06:23:00,
2013-10-30 02:38:00,32.8,27.0,30.27,West,273,0.0,0.0,80,0.00,,,0.00,weatherlink.com 1.10,2013-10-30 06:38:00,
2013-10-30 02:53:00,33.4,27.0,30.27,West,272,1.0,2.0,76,0.00,,,0.00,weatherlink.com 1.10,2013-10-30 06:53:00,
2013-10-30 03:08:00,34.7,28.0,30.27,SSW,202,3.0,10.0,77,0.00,,,0.00,weatherlink.com 1.10,2013-10-30 07:08:00,
2013-10-30 03:23:00,36.5,30.0,30.26,SW,225,3.0,5.0,77,0.00,,,0.00,weatherlink.com 1.10,2013-10-30 07:23:00,
2013-10-30 03:38:00,35.7,31.0,30.25,SE,136,2.0,6.0,84,0.00,,,0.00,weatherlink.com 1.10,2013-10-30 07:38:00,
2013-10-30 03:53:00,35.6,32.0,30.25,South,174,2.0,5.0,86,0.00,,,0.00,weatherlink.com 1.10,2013-10-30 07:53:00,
2013-10-30 04:08:00,35.4,32.0,30.24,SSW,204,0.0,4.0,88,0.00,,,0.00,weatherlink.com 1.10,2013-10-30 08:08:00,
2013-10-30 04:23:00,35.6,33.0,30.24,SSE,154,2.0,5.0,89,0.00,,,0.00,weatherlink.com 1.10,2013-10-30 08:23:00,
2013-10-30 04:38:00,35.8,33.0,30.24,SSW,209,1.0,4.0,89,0.00,,,0.00,weatherlink.com 1.10,2013-10-30 08:38:00,
2013-10-30 04:53:00,35.9,33.0,30.23,SSE,157,2.0,4.0,89,0.00,,,0.00,weatherlink.com 1.10,2013-10-30 08:53:00,
2013-10-30 05:08:00,36.3,33.0,30.23,SSW,201,0.0,5.0,88,0.00,,,0.00,weatherlink.com 1.10,2013-10-30 09:08:00,
2013-10-30 05:23:00,36.8,33.0,30.24,SSE,148,1.0,5.0,87,0.00,,,0.00,weatherlink.com 1.10,2013-10-30 09:23:00,
2013-10-30 05:38:00,37.2,33.0,30.24,SE,145,0.0,4.0,86,0.00,,,0.00,weatherlink.com 1.10,2013-10-30 09:38:00,
2013-10-30 05:53:00,37.3,34.0,30.23,SE,145,0.0,2.0,88,0.00,,,0.00,weatherlink.com 1.10,2013-10-30 09:53:00,
2013-10-30 06:08:00,37.0,34.0,30.24,SSE,162,0.0,3.0,90,0.00,,,0.00,weatherlink.com 1.10,2013-10-30 10:08:00,
2013-10-30 06:23:00,36.9,34.0,30.23,ENE,65,2.0,3.0,90,0.01,,,0.01,weatherlink.com 1.10,2013-10-30 10:23:00,
2013-10-30 06:38:00,36.6,34.0,30.24,NE,41,0.0,5.0,91,0.01,,,0.01,weatherlink.com 1.10,2013-10-30 10:38:00,
2013-10-30 06:53:00,36.4,34.0,30.23,NNE,32,2.0,4.0,92,0.01,,,0.01,weatherlink.com 1.10,2013-10-30 10:53:00,
2013-10-30 07:09:00,36.3,35.0,30.23,NNE,32,3.0,4.0,93,0.01,,,0.01,weatherlink.com 1.10,2013-10-30 11:09:00,
2013-10-30 07:24:00,36.3,35.0,30.23,NNE,29,2.0,5.0,93,0.00,,,0.01,weatherlink.com 1.10,2013-10-30 11:24:00,
2013-10-30 07:39:00,36.4,35.0,30.23,NNE,29,1.0,2.0,94,0.00,,,0.01,weatherlink.com 1.10,2013-10-30 11:39:00,
2013-10-30 07:54:00,36.8,36.0,30.23,NNE,29,2.0,3.0,95,0.00,,,0.01,weatherlink.com 1.10,2013-10-30 11:54:00,
2013-10-30 08:09:00,-999.0,-99.9,30.23,North,-999,-999.0,-999.0,-999,0.00,,,0.01,weatherlink.com 1.10,2013-10-30 12:09:00,
2013-10-30 08:24:00,-999.0,-99.9,30.24,North,-999,-999.0,-999.0,-999,0.00,,,0.01,weatherlink.com 1.10,2013-10-30 12:24:00,
2013-10-30 08:39:00,-999.0,-99.9,30.23,North,-999,-999.0,-999.0,-999,0.00,,,0.01,weatherlink.com 1.10,2013-10-30 12:39:00,
2013-10-30 08:54:00,38.6,37.0,30.24,NE,34,2.0,3.0,95,0.00,,,0.01,weatherlink.com 1.10,2013-10-30 12:54:00,
2013-10-30 09:10:00,39.0,38.0,30.23,NE,34,1.0,4.0,94,0.00,,,0.01,weatherlink.com 1.10,2013-10-30 13:10:00,
2013-10-30 09:24:00,39.7,38.0,30.23,NNE,32,1.0,5.0,94,0.00,,,0.01,weatherlink.com 1.10,2013-10-30 13:24:00,
2013-10-30 09:39:00,40.0,38.0,30.23,NNE,33,4.0,5.0,92,0.00,,,0.01,weatherlink.com 1.10,2013-10-30 13:39:00,
2013-10-30 09:54:00,40.5,38.0,30.24,NNE,30,3.0,5.0,91,0.00,,,0.01,weatherlink.com 1.10,2013-10-30 13:54:00,
2013-10-30 10:09:00,41.0,39.0,30.24,East,89,0.0,6.0,92,0.00,,,0.01,weatherlink.com 1.10,2013-10-30 14:09:00,
2013-10-30 10:24:00,41.0,38.0,30.24,ENE,71,2.0,6.0,90,0.00,,,0.01,weatherlink.com 1.10,2013-10-30 14:24:00,
2013-10-30 10:39:00,41.8,39.0,30.24,NE,34,3.0,5.0,90,0.00,,,0.01,weatherlink.com 1.10,2013-10-30 14:39:00,
2013-10-30 10:54:00,42.5,40.0,30.24,NE,44,3.0,8.0,89,0.00,,,0.01,weatherlink.com 1.10,2013-10-30 14:54:00,
2013-10-30 11:09:00,42.8,40.0,30.23,East,88,1.0,5.0,90,0.00,,,0.01,weatherlink.com 1.10,2013-10-30 15:09:00,
2013-10-30 11:24:00,43.6,41.0,30.24,East,90,1.0,6.0,89,0.00,,,0.01,weatherlink.com 1.10,2013-10-30 15:24:00,
2013-10-30 11:39:00,44.0,40.0,30.23,ENE,66,2.0,6.0,86,0.00,,,0.01,weatherlink.com 1.10,2013-10-30 15:39:00,
2013-10-30 11:54:00,44.6,41.0,30.23,NE,45,1.0,7.0,86,0.00,,,0.01,weatherlink.com 1.10,2013-10-30 15:54:00,
2013-10-30 12:09:00,46.4,41.0,30.23,ESE,110,1.0,4.0,82,0.00,,,0.01,weatherlink.com 1.10,2013-10-30 16:09:00,
2013-10-30 12:24:00,47.7,42.0,30.21,ESE,117,3.0,5.0,80,0.00,,,0.01,weatherlink.com 1.10,2013-10-30 16:24:00,
2013-10-30 12:39:00,48.4,42.0,30.21,NE,48,5.0,8.0,77,0.00,,,0.01,weatherlink.com 1.10,2013-10-30 16:39:00,
2013-10-30 12:54:00,48.8,41.0,30.20,NNE,19,1.0,11.0,74,0.00,,,0.01,weatherlink.com 1.10,2013-10-30 16:54:00,
2013-10-30 13:09:00,49.2,40.0,30.19,East,91,1.0,8.0,71,0.00,,,0.01,weatherlink.com 1.10,2013-10-30 17:09:00,
2013-10-30 13:24:00,48.6,40.0,30.19,NE,40,5.0,7.0,72,0.00,,,0.01,weatherlink.com 1.10,2013-10-30 17:24:00,
2013-10-30 13:39:00,48.7,40.0,30.18,NNE,18,3.0,10.0,72,0.00,,,0.01,weatherlink.com 1.10,2013-10-30 17:39:00,
2013-10-30 13:55:00,49.2,41.0,30.17,ENE,77,1.0,5.0,72,0.00,,,0.01,weatherlink.com 1.10,2013-10-30 17:55:00,
2013-10-30 14:10:00,50.4,42.0,30.16,East,100,2.0,6.0,72,0.00,,,0.01,weatherlink.com 1.10,2013-10-30 18:10:00,
2013-10-30 14:25:00,51.4,41.0,30.16,ESE,102,7.0,8.0,67,0.00,,,0.01,weatherlink.com 1.10,2013-10-30 18:25:00,
2013-10-30 14:40:00,51.0,40.0,30.16,NE,38,4.0,8.0,65,0.00,,,0.01,weatherlink.com 1.10,2013-10-30 18:40:00,
2013-10-30 14:55:00,51.8,40.0,30.15,NE,37,2.0,8.0,64,0.00,,,0.01,weatherlink.com 1.10,2013-10-30 18:55:00,
2013-10-30 15:10:00,51.7,38.0,30.15,NNE,32,3.0,7.0,61,0.00,,,0.01,weatherlink.com 1.10,2013-10-30 19:10:00,
2013-10-30 15:25:00,51.5,39.0,30.14,NE,39,1.0,7.0,63,0.00,,,0.01,weatherlink.com 1.10,2013-10-30 19:25:00,
2013-10-30 15:40:00,51.8,39.0,30.15,NE,36,1.0,5.0,61,0.00,,,0.01,weatherlink.com 1.10,2013-10-30 19:40:00,
2013-10-30 15:55:00,52.3,39.0,30.15,South,180,0.0,5.0,61,0.00,,,0.01,weatherlink.com 1.10,2013-10-30 19:55:00,
2013-10-30 16:10:00,51.1,39.0,30.15,WSW,250,2.0,5.0,64,0.00,,,0.00,weatherlink.com 1.10,2013-10-30 20:10:00,
2013-10-30 16:25:00,49.5,38.0,30.15,SW,230,0.0,4.0,66,0.00,,,0.00,weatherlink.com 1.10,2013-10-30 20:25:00,
2013-10-30 16:40:00,48.9,39.0,30.15,SW,231,0.0,4.0,69,0.00,,,0.00,weatherlink.com 1.10,2013-10-30 20:40:00,
2013-10-30 16:55:00,47.7,39.0,30.15,WSW,252,2.0,3.0,72,0.00,,,0.00,weatherlink.com 1.10,2013-10-30 20:55:00,
2013-10-30 17:25:00,45.8,38.0,30.14,WSW,251,2.0,3.0,75,0.00,,,0.00,weatherlink.com 1.10,2013-10-30 21:25:00,
2013-10-30 17:40:00,44.0,38.0,30.16,WSW,252,2.0,3.0,78,0.00,,,0.00,weatherlink.com 1.10,2013-10-30 21:40:00,
2013-10-30 17:55:00,42.5,37.0,30.16,WSW,251,1.0,1.0,80,0.00,,,0.00,weatherlink.com 1.10,2013-10-30 21:55:00,
2013-10-30 18:10:00,40.6,36.0,30.16,WSW,251,0.0,0.0,82,0.00,,,0.00,weatherlink.com 1.10,2013-10-30 22:10:00,
2013-10-30 18:25:00,38.9,35.0,30.16,WSW,251,0.0,0.0,86,0.00,,,0.00,weatherlink.com 1.10,2013-10-30 22:25:00,
2013-10-30 18:40:00,37.7,35.0,30.18,WSW,251,0.0,0.0,88,0.00,,,0.00,weatherlink.com 1.10,2013-10-30 22:40:00,
2013-10-30 18:56:00,36.6,34.0,30.18,WSW,251,0.0,0.0,90,0.00,,,0.00,weatherlink.com 1.10,2013-10-30 22:56:00,
2013-10-30 19:11:00,35.8,34.0,30.19,WSW,251,0.0,0.0,92,0.00,,,0.00,weatherlink.com 1.10,2013-10-30 23:11:00,
2013-10-30 19:26:00,35.2,33.0,30.18,WSW,251,0.0,0.0,92,0.00,,,0.00,weatherlink.com 1.10,2013-10-30 23:26:00,
2013-10-30 19:41:00,34.8,33.0,30.18,WSW,251,0.0,2.0,94,0.00,,,0.00,weatherlink.com 1.10,2013-10-30 23:41:00,
2013-10-30 19:56:00,36.8,36.0,30.18,WSW,251,0.0,4.0,96,0.00,,,0.00,weatherlink.com 1.10,2013-10-30 23:56:00,
2013-10-30 20:11:00,36.4,35.0,30.18,WSW,251,0.0,2.0,94,0.00,,,0.00,weatherlink.com 1.10,2013-10-31 00:11:00,
2013-10-30 20:26:00,36.0,35.0,30.18,WSW,251,0.0,0.0,95,0.00,,,0.00,weatherlink.com 1.10,2013-10-31 00:26:00,
2013-10-30 20:41:00,35.4,34.0,30.18,WSW,251,0.0,0.0,95,0.00,,,0.00,weatherlink.com 1.10,2013-10-31 00:41:00,
2013-10-30 20:56:00,34.4,33.0,30.17,WSW,251,0.0,0.0,94,0.00,,,0.00,weatherlink.com 1.10,2013-10-31 00:56:00,
2013-10-30 21:11:00,34.0,33.0,30.17,WSW,251,0.0,0.0,95,0.00,,,0.00,weatherlink.com 1.10,2013-10-31 01:11:00,
2013-10-30 21:26:00,34.9,34.0,30.18,WSW,251,0.0,1.0,97,0.00,,,0.00,weatherlink.com 1.10,2013-10-31 01:26:00,
2013-10-30 21:41:00,35.4,35.0,30.18,WSW,251,0.0,0.0,97,0.00,,,0.00,weatherlink.com 1.10,2013-10-31 01:41:00,
2013-10-30 21:56:00,36.8,36.0,30.17,WSW,251,0.0,1.0,97,0.00,,,0.00,weatherlink.com 1.10,2013-10-31 01:56:00,
2013-10-30 22:11:00,37.5,37.0,30.17,WSW,251,0.0,1.0,97,0.00,,,0.00,weatherlink.com 1.10,2013-10-31 02:11:00,
2013-10-30 22:26:00,37.8,37.0,30.18,WSW,251,0.0,0.0,97,0.00,,,0.00,weatherlink.com 1.10,2013-10-31 02:26:00,
2013-10-30 22:41:00,37.5,37.0,30.18,WSW,251,0.0,1.0,97,0.00,,,0.00,weatherlink.com 1.10,2013-10-31 02:41:00,
2013-10-30 22:56:00,37.4,37.0,30.18,WSW,251,0.0,0.0,97,0.00,,,0.00,weatherlink.com 1.10,2013-10-31 02:56:00,
2013-10-30 23:11:00,38.8,38.0,30.18,WSW,251,0.0,2.0,98,0.00,,,0.00,weatherlink.com 1.10,2013-10-31 03:11:00,
2013-10-30 23:26:00,38.2,37.0,30.18,WSW,251,0.0,0.0,96,0.00,,,0.00,weatherlink.com 1.10,2013-10-31 03:26:00,
2013-10-30 23:41:00,37.9,37.0,30.17,WSW,251,0.0,0.0,97,0.00,,,0.00,weatherlink.com 1.10,2013-10-31 03:41:00,
2013-10-30 23:56:00,37.5,37.0,30.17,WSW,251,0.0,0.0,97,0.00,,,0.00,weatherlink.com 1.10,2013-10-31 03:56:00,